ORBCOMM FM 15

Satellite information

Favourite Embed

Satellite Type and Status

PAYLOADIN ORBIT

Key statistics

Satellite ORBCOMM FM 15 at a glance.

Uptime

9776

Days in orbit

Revolutions

≈ 14.4

Per day

Orbit

LEO

Low Earth Orbit

Inclination

45.0

Latest

Satellite identification and parameters

Extended collection of information and parameters for ORBCOMM FM 15.

Object identification

Identified? True

Debris? False

Object name: ORBCOMM FM 15

International designator: 1998-046F

Object number (NORAD): 25418

Object ID (CCSDS): 25418

Country: ORBITAL TELECOMMUNICATIONS SATELLITE (GLOBALSTAR) (ORB)

Current information (Y/N): Y

RCS size: MEDIUM

Orbital parameters

Period: 100.107 minutes

Inclination: 44.9985 deg

SMA: 7141.734 km

Apoapsis: 766.613 km

Periapsis: 760.584 km

RAAN: 8.9369 deg

Eccentricy: 0.0004221

Argument of periapsis: 85.7482 deg

Mean anomaly: 274.3848 deg

Mean motion: 14.38458303 rev/day

Mean motion (dot): 0.0000128 rev/day2

B* drag term: 0.0004617 1/REarth

Two-line elements (TLE)

Creation date: May 8, 2025, 3:01 a.m.

Reference frame: TEME

Reference center: EARTH

Epoch: May 7, 2025, 10:46 p.m. UTC

TLE line 0: 0 ORBCOMM FM 15

TLE line 1: 1 25418U 98046F 25127.94913095 .00001280 00000-0 46170-3 0 9996

TLE line 2: 2 25418 44.9985 8.9369 0004221 85.7482 274.3848 14.38458303398453

Live tracking on map

Real-time ground track for satellite ORBCOMM FM 15.

In-orbit conjunctions

There are no conjunctions computed for ORBCOMM FM 15, at the moment. Check back to stay up to date, as we update our databases every day.

Go to all conjunctions

Associated space launch

ORBCOMM FM 15 was lifted into orbit during the mission ‘Pegasus XL HAPS | Orbcomm-B1 - B8’, on board a Pegasus XL HAPS space rocket.

The launch took place on Aug. 2, 1998, 4:24 p.m. from Wallops Flight Facility.

For more information about the launch, click the button.

Launch to space Pegasus XL HAPS | Orbcomm-B1 - B8
Pegasus XL HAPS | Orbcomm-B1 - B8

Agency: N/A

Status: Launch Successful

Launch date: Aug. 2, 1998, 4:24 p.m. UTC

Rocket: Pegasus XL HAPS

Launch pad: Wallops Flight Facility

Location: Air launch to orbit

...

Latest news about this satellite

There are no fresh news available about this satellite. Check back as we update our databases every day.


Newsletter sign-up

Weekly statistics, charts and insights to help you stay on top of the space industry.